Location: Lafig�re
(44.4503°N, 4.0357°E)
Time: 07:17:24
(UTC+00:00)

Cosmos 1092 Rocket - Pass Details

Date: 25 January 2021
Orbit: 954 x 994 km, 83.0° (Epoch: 08 March)

Event Time Altitude Azimuth Distance (km) Brightness Sun altitude
Rises 18:56:55 0° 209° (SSW) 3,647 7.4 -23.7°
Reaches altitude 10° 18:59:36 10° 217° (SW) 2,699 6.8 -24.2°
Maximum altitude 19:05:21 40° 285° (WNW) 1,384 5.2 -25.2°
Drops below altitude 10° 19:11:07 10° 355° (N) 2,697 6.3 -26.2°
Sets 19:13:48 0° 3° (N) 3,645 7.0 -26.7°
